Regional Weather Roundup
Issued by NWS

Home | Current Version | Previous Version | Text Only | Print | Product List | Glossary On
Versions: 1 2 3 4 5 6 7 8 9 10 11 12 13 14 15 16 17 18 19 20 21 22 23 24 25 26 27 28 29 30 31 32 33 34 35 36 37 38 39 40 41 42 43 44 45 46 47 48 49 50
000
ASUS45 KBOI 302010
RWRID
WEATHER ROUNDUP FOR IDAHO
NATIONAL WEATHER SERVICE BOISE ID
100 PM MST FRI JAN 30 2015

NOTE: "FAIR" INDICATES FEW OR NO CLOUDS BELOW 12000 FEET
WITH NO SIGNIFICANT WEATHER AND/OR OBSTRUCTIONS TO VISIBILITY

IDZ012-014-302100-
SOUTHWEST IDAHO


CITY           SKY/WX    TMP DP  RH WIND       PRES   REMARKS
BOISE          SUNNY     41  34  76 N9        30.25F
CALDWELL       CLOUDY    43  30  61 NW9       30.29F
MOUNTAIN HOME  SUNNY     42  35  73 NW12      30.22F
$$

IDZ016-017-302100-
SOUTHCENTRAL IDAHO


CITY           SKY/WX    TMP DP  RH WIND       PRES   REMARKS
BURLEY         PTSUNNY   39  29  67 NW3       30.18F
JEROME         FOG       33  32  96 SW7       30.21F VSB<1/4 WCI  27
TWIN FALLS     CLOUDY    38  32  79 W8        30.20F WCI  32
$$

IDZ019>023-302100-
SOUTHEAST IDAHO


CITY           SKY/WX    TMP DP  RH WIND       PRES   REMARKS
IDAHO FALLS    PTSUNNY   35  25  66 N12       30.17F WCI  27
POCATELLO      MOSUNNY   37  32  82 NE3       30.16F
REXBURG        CLOUDY    32  22  66 NE8       30.17F WCI  25
$$

IDZ006-010-011-018-031-032-302100-
CENTRAL IDAHO MOUNTAINS


CITY           SKY/WX    TMP DP  RH WIND       PRES   REMARKS
MCCALL         SUNNY     27  21  78 CALM      30.20F
HAILEY         PTSUNNY   37  21  52 NW6       30.17F WCI  33
STANLEY          N/A     14   9  80 E5        30.25F WCI   6
SALMON         CLOUDY    28  21  74 CALM      30.33F
CHALLIS        CLOUDY    27  19  72 CALM      30.29F
$$

IDZ002-004-006-007-026-302100-
NORTHERN IDAHO


CITY           SKY/WX    TMP DP  RH WIND       PRES   REMARKS
LEWISTON       CLOUDY    38  35  89 CALM      30.38F
LOWELL           N/A     40  31  70 S10       30.36F WCI  33
COEUR D`ALENE  CLOUDY    32  28  86 N7        30.34F WCI  26
MULLAN PASS    SUNNY     34  20  56 NW3       30.22F
$$



USA.gov is the U.S. government's official web portal to all federal, state and local government web resources and services.